Home > Weather > India > Gurgaon > Past weeks

Flag for India Weather past 2 weeks in Gurgaon, Haryana, India

61 °F


Feels Like: 61 °F
Forecast: 55 / 75 °F
Wind: No wind

Location: New Delhi Palam Airport

Current Time: Dec 2, 2015 at 5:45:49 AM

Latest Report: Dec 2, 2015 at 5:00 AM

Visibility: 0 mi

Pressure: 29.95 "Hg

Humidity: 83%

Dew point: 55 °F

Location of GurgaonLocation

Historic Weather in Gurgaon — Graph


Gurgaon temperature yesterday

Maximum temperature yesterday: 97 °F (at 1:30 PM)
Minimum temperature yesterday: 57 °F (at 6:30 AM)
Average temperature yesterday: 69 °F

Past Weeks' High & Low Weather Summary

High97 °F (Dec 1, 1:30 PM)100% (Nov 30, 6:00 AM)30.18 "Hg (Nov 30, 6:00 AM)
Low54 °F (Nov 18, 6:00 AM)21% (Nov 22, 3:30 PM)29.83 "Hg (Nov 27, 3:00 PM)
Average67 °F61%29.99 "Hg
* Reported Nov 17 5:00 AM — Dec 2 4:30 AM, Gurgaon, Weather by CustomWeather, © 2015

Note: Actual official high and low records may vary slightly from our data, if they occured in-between our weather recording intervals... More about our weather records


Gurgaon weather history for previous 24 hours

Time TempWeatherWind HumidityBarometerVisibility
4:30 AM
Wed, Dec 2
61 °FFog.No wind83%29.95 "Hg1 mi
3:30 AM61 °FFog.No wind83%29.95 "Hg1 mi
3:00 AM61 °FFog.No wind88%29.95 "Hg1 mi
2:30 AM61 °FFog.No wind94%29.95 "Hg1 mi
2:00 AM63 °FFog.No wind88%29.95 "Hg1 mi
1:30 AM63 °FFog.No wind94%29.95 "Hg1 mi
1:00 AM63 °FFog.No wind94%29.95 "Hg1 mi
12:30 AM63 °FFog.No wind94%29.95 "Hg1 mi
12:00 AM64 °FFog.3 mph88%29.98 "Hg1 mi
11:30 PM
Tue, Dec 1
64 °FFog.No wind88%29.98 "Hg1 mi
11:00 PM64 °FFog.No wind88%29.98 "Hg1 mi
10:30 PM64 °FFog.No wind88%29.98 "Hg1 mi
10:00 PM66 °FFog.5 mph83%29.98 "Hg1 mi
9:00 PM66 °FFog.3 mph83%29.95 "Hg1 mi
8:30 PM68 °FFog.3 mph78%29.95 "Hg1 mi
8:00 PM68 °FFog.3 mph78%29.95 "Hg1 mi
7:30 PM72 °FPassing clouds.3 mph65%29.95 "Hg1 mi
7:00 PM72 °FPassing clouds.5 mph65%29.95 "Hg1 mi
6:30 PM72 °FPassing clouds.No wind65%29.95 "Hg1 mi
6:00 PM72 °FPassing clouds.3 mph65%29.95 "Hg1 mi
5:30 PM73 °FScattered clouds.6 mph61%29.92 "Hg1 mi
5:00 PM73 °FScattered clouds.6 mph61%29.92 "Hg1 mi
4:30 PM77 °FScattered clouds.6 mph51%29.95 "Hg1 mi
4:00 PM77 °FScattered clouds.6 mph51%29.95 "Hg1 mi
3:30 PM79 °FScattered clouds.No wind45%29.95 "Hg1 mi
3:00 PM79 °FScattered clouds.3 mph45%29.95 "Hg1 mi
2:30 PM79 °FPassing clouds.3 mph45%29.95 "Hg1 mi
1:30 PM97 °FPassing clouds.5 mph25%29.98 "Hg1 mi
12:30 PM77 °FPassing clouds.6 mph47%30.01 "Hg1 mi
12:00 PM77 °FPassing clouds.6 mph54%30.01 "Hg1 mi
11:30 AM75 °FPassing clouds.6 mph57%30.04 "Hg1 mi
11:00 AM73 °FPassing clouds.5 mph61%30.04 "Hg1 mi
10:00 AM70 °FPassing clouds.2 mph69%30.04 "Hg1 mi
9:30 AM66 °FFog.No wind83%30.04 "Hg1 mi
9:00 AM63 °FFog.No wind88%30.04 "Hg1 mi
8:30 AM61 °FFog.No wind94%30.04 "Hg0 mi
8:00 AM59 °FFog.No wind94%30.04 "Hg0 mi
7:30 AM57 °FFog.No wind94%30.04 "Hg0 mi
6:30 AM57 °FFog.No wind94%30.01 "Hg0 mi
Weather by CustomWeather, © 2015

See weather overviewHow to use our weather pages